• In Lithuania
  • List of Countries
  • For 7 days
  • Water Temperature
  • Satellite Maps
  • Weather Map
  • Weather Widgets
  • user-avatar
    Login

    Hourly Weather Mochudi

    Today, 24 October, Wednesday

    Time Temperature Precipitation Wind Pressure Humidity
    00:00 +20°C° 0 mm 2 mps 687 mmHg 28%
    01:00 +19°C° 0 mm 2 mps 687 mmHg 32%
    02:00 +18°C° 0 mm 2 mps 686 mmHg 36%
    03:00 +18°C° 0 mm 2 mps 686 mmHg 41%
    04:00 +17°C° 0 mm 2 mps 686 mmHg 47%
    05:00 +16°C° 0 mm 2 mps 686 mmHg 52%
    06:00 +18°C° 0 mm 3 mps 686 mmHg 50%
    07:00 +19°C° 0 mm 3 mps 687 mmHg 48%
    08:00 +20°C° 0 mm 4 mps 687 mmHg 46%
    09:00 +22°C° 0 mm 4 mps 687 mmHg 39%
    10:00 +25°C° 0 mm 4 mps 687 mmHg 32%
    11:00 +27°C° 0 mm 4 mps 687 mmHg 25%
    12:00 +28°C° 0 mm 4 mps 687 mmHg 22%
    13:00 +29°C° 0 mm 4 mps 686 mmHg 19%
    14:00 +30°C° 0 mm 4 mps 685 mmHg 16%
    15:00 +30°C° 0 mm 3 mps 685 mmHg 15%
    16:00 +30°C° 0 mm 3 mps 685 mmHg 14%
    17:00 +30°C° 0 mm 3 mps 684 mmHg 14%
    18:00 +29°C° 0 mm 2 mps 684 mmHg 15%
    19:00 +27°C° 0 mm 2 mps 684 mmHg 17%
    20:00 +26°C° 0 mm 2 mps 685 mmHg 19%
    21:00 +25°C° 0 mm 2 mps 685 mmHg 21%
    22:00 +24°C° 0 mm 2 mps 685 mmHg 24%
    23:00 +23°C° 0 mm 2 mps 685 mmHg 26%

    Tomorrow, 25 October, Thursday

    Time Temperature Precipitation Wind Pressure Humidity
    00:00 +21°C° 0 mm 2 mps 684 mmHg 29%
    01:00 +21°C° 0 mm 2 mps 684 mmHg 31%
    02:00 +20°C° 0 mm 2 mps 684 mmHg 34%
    03:00 +19°C° 0 mm 2 mps 684 mmHg 35%
    04:00 +19°C° 0 mm 1 mps 684 mmHg 37%
    05:00 +19°C° 0 mm 1 mps 684 mmHg 38%
    06:00 +20°C° 0 mm 2 mps 684 mmHg 35%
    07:00 +21°C° 0 mm 2 mps 685 mmHg 31%
    08:00 +24°C° 0 mm 3 mps 686 mmHg 28%
    09:00 +26°C° 0 mm 3 mps 686 mmHg 24%
    10:00 +28°C° 0 mm 3 mps 686 mmHg 21%
    11:00 +30°C° 0 mm 3 mps 686 mmHg 17%
    12:00 +31°C° 0 mm 3 mps 685 mmHg 15%
    13:00 +33°C° 0 mm 3 mps 685 mmHg 13%
    14:00 +35°C° 0 mm 4 mps 684 mmHg 11%
    15:00 +34°C° 0 mm 3 mps 684 mmHg 10%
    16:00 +34°C° 0 mm 3 mps 683 mmHg 10%
    17:00 +34°C° 0 mm 2 mps 683 mmHg 10%
    18:00 +32°C° 0 mm 2 mps 683 mmHg 11%
    19:00 +30°C° 0 mm 1 mps 683 mmHg 12%
    20:00 +28°C° 0 mm 1 mps 683 mmHg 14%
    21:00 +28°C° 0 mm 1 mps 684 mmHg 14%
    22:00 +27°C° 0 mm 1 mps 684 mmHg 15%
    23:00 +26°C° 0 mm 1 mps 684 mmHg 16%

    Day after tomorrow, 26 October, Friday

    Time Temperature Precipitation Wind Pressure Humidity
    00:00 +25°C° 0 mm 2 mps 684 mmHg 17%
    01:00 +24°C° 0 mm 2 mps 683 mmHg 19%
    02:00 +23°C° 0 mm 2 mps 683 mmHg 20%
    03:00 +23°C° 0 mm 2 mps 683 mmHg 23%
    04:00 +21°C° 0 mm 2 mps 683 mmHg 26%
    05:00 +20°C° 0 mm 2 mps 683 mmHg 29%
    06:00 +23°C° 0 mm 2 mps 684 mmHg 29%
    07:00 +25°C° 0 mm 3 mps 685 mmHg 28%
    08:00 +26°C° 0 mm 3 mps 686 mmHg 28%
    09:00 +28°C° 0 mm 3 mps 686 mmHg 24%
    10:00 +31°C° 0 mm 3 mps 686 mmHg 20%
    11:00 +34°C° 0 mm 3 mps 686 mmHg 15%
    12:00 +35°C° 0 mm 3 mps 685 mmHg 14%
    13:00 +36°C° 0 mm 3 mps 685 mmHg 12%
    14:00 +37°C° 0 mm 3 mps 684 mmHg 10%
    15:00 +37°C° 0 mm 3 mps 684 mmHg 9%
    16:00 +37°C° 0 mm 3 mps 683 mmHg 9%
    17:00 +37°C° 0 mm 3 mps 683 mmHg 9%
    18:00 +35°C° 0 mm 2 mps 683 mmHg 10%
    19:00 +32°C° 0 mm 2 mps 683 mmHg 11%
    20:00 +31°C° 0 mm 1 mps 684 mmHg 12%
    21:00 +30°C° 0 mm 2 mps 684 mmHg 13%
    22:00 +29°C° 0 mm 2 mps 684 mmHg 13%
    23:00 +28°C° 0 mm 3 mps 684 mmHg 14%

    27 October, Saturday

    Time Temperature Precipitation Wind Pressure Humidity
    00:00 +27°C° 0 mm 3 mps 684 mmHg 16%
    01:00 +26°C° 0 mm 3 mps 684 mmHg 17%
    02:00 +25°C° 0 mm 2 mps 683 mmHg 19%
    03:00 +25°C° 0 mm 2 mps 683 mmHg 21%
    04:00 +24°C° 0 mm 2 mps 684 mmHg 24%
    05:00 +23°C° 0 mm 2 mps 684 mmHg 26%
    06:00 +25°C° 0 mm 3 mps 685 mmHg 26%
    07:00 +26°C° 0 mm 4 mps 685 mmHg 26%
    08:00 +28°C° 0 mm 5 mps 686 mmHg 26%
    09:00 +30°C° 0 mm 4 mps 686 mmHg 23%
    10:00 +33°C° 0 mm 4 mps 686 mmHg 20%
    11:00 +35°C° 0 mm 4 mps 686 mmHg 17%
    12:00 +36°C° 0 mm 3 mps 685 mmHg 15%
    13:00 +37°C° 0 mm 3 mps 685 mmHg 13%
    14:00 +38°C° 0 mm 2 mps 684 mmHg 11%
    15:00 +38°C° 0 mm 2 mps 684 mmHg 11%
    16:00 +38°C° 0 mm 2 mps 683 mmHg 11%
    17:00 +38°C° 0 mm 2 mps 683 mmHg 11%
    18:00 +36°C° 0 mm 2 mps 683 mmHg 12%
    19:00 +33°C° 0 mm 1 mps 683 mmHg 13%
    20:00 +32°C° 0 mm 1 mps 683 mmHg 14%
    21:00 +31°C° 0 mm 1 mps 683 mmHg 15%
    22:00 +30°C° 0 mm 2 mps 683 mmHg 16%
    23:00 +30°C° 0 mm 3 mps 683 mmHg 17%

    28 October, Sunday

    Time Temperature Precipitation Wind Pressure Humidity
    00:00 +29°C° 0 mm 4 mps 683 mmHg 19%
    01:00 +28°C° 0 mm 4 mps 683 mmHg 21%
    02:00 +27°C° 0 mm 5 mps 682 mmHg 23%
    03:00 +26°C° 0 mm 4 mps 683 mmHg 24%
    04:00 +25°C° 0 mm 4 mps 683 mmHg 26%
    05:00 +24°C° 0 mm 3 mps 683 mmHg 28%
    06:00 +25°C° 0 mm 4 mps 683 mmHg 27%
    07:00 +26°C° 0 mm 5 mps 684 mmHg 26%
    08:00 +27°C° 0 mm 5 mps 685 mmHg 25%
    09:00 +29°C° 0 mm 5 mps 685 mmHg 22%
    10:00 +32°C° 0 mm 4 mps 685 mmHg 20%
    11:00 +34°C° 0 mm 4 mps 685 mmHg 17%
    12:00 +36°C° 0 mm 3 mps 684 mmHg 15%
    13:00 +37°C° 0 mm 2 mps 683 mmHg 14%
    14:00 +39°C° 0 mm 1 mps 683 mmHg 12%
    15:00 +37°C° 0 mm 1 mps 682 mmHg 12%
    16:00 +38°C° 0 mm 2 mps 682 mmHg 11%
    17:00 +38°C° 0 mm 2 mps 681 mmHg 11%
    18:00 +36°C° 0 mm 2 mps 681 mmHg 13%
    19:00 +35°C° 0 mm 2 mps 681 mmHg 14%
    20:00 +33°C° 0 mm 3 mps 681 mmHg 16%
    21:00 +31°C° 0 mm 3 mps 681 mmHg 18%
    22:00 +30°C° 0 mm 4 mps 681 mmHg 21%
    23:00 +30°C° 0 mm 5 mps 681 mmHg 23%

    29 October, Monday

    Time Temperature Precipitation Wind Pressure Humidity
    00:00 +28°C° 0 mm 5 mps 681 mmHg 27%
    01:00 +27°C° 0 mm 5 mps 681 mmHg 31%
    02:00 +26°C° 0 mm 5 mps 680 mmHg 35%
    03:00 +25°C° 0 mm 5 mps 681 mmHg 36%
    04:00 +23°C° 0 mm 4 mps 681 mmHg 38%
    05:00 +23°C° 0 mm 4 mps 681 mmHg 39%
    06:00 +23°C° 0 mm 4 mps 682 mmHg 37%
    07:00 +25°C° 0 mm 5 mps 682 mmHg 36%
    08:00 +26°C° 0 mm 5 mps 683 mmHg 34%
    09:00 +28°C° 0 mm 5 mps 683 mmHg 30%
    10:00 +30°C° 0 mm 5 mps 682 mmHg 27%
    11:00 +33°C° 0 mm 4 mps 682 mmHg 23%
    12:00 +35°C° 0 mm 4 mps 682 mmHg 20%
    13:00 +37°C° 0 mm 3 mps 681 mmHg 17%
    14:00 +38°C° 0 mm 2 mps 681 mmHg 14%
    15:00 +39°C° 0 mm 1 mps 680 mmHg 13%
    16:00 +39°C° 0 mm 1 mps 680 mmHg 12%
    17:00 +36°C° 0 mm 0 mps 679 mmHg 11%
    18:00 +36°C° 0 mm 1 mps 679 mmHg 13%
    19:00 +36°C° 0 mm 2 mps 679 mmHg 14%
    20:00 +34°C° 0 mm 3 mps 679 mmHg 16%
    21:00 +33°C° 0 mm 3 mps 679 mmHg 19%
    22:00 +32°C° 0 mm 4 mps 679 mmHg 21%
    23:00 +30°C° 0 mm 4 mps 679 mmHg 24%

    30 October, Tuesday

    Time Temperature Precipitation Wind Pressure Humidity
    00:00 +29°C° 0 mm 4 mps 678 mmHg 26%
    01:00 +28°C° 0 mm 3 mps 678 mmHg 28%
    02:00 +27°C° 0 mm 2 mps 678 mmHg 31%
    03:00 +26°C° 0 mm 2 mps 678 mmHg 32%
    04:00 +26°C° 0 mm 2 mps 678 mmHg 34%
    05:00 +25°C° 0 mm 2 mps 678 mmHg 35%
    06:00 +26°C° 0 mm 2 mps 678 mmHg 32%
    07:00 +28°C° 0 mm 2 mps 679 mmHg 28%
    08:00 +29°C° 0 mm 3 mps 680 mmHg 25%
    09:00 +32°C° 0 mm 2 mps 680 mmHg 21%
    10:00 +35°C° 0 mm 2 mps 680 mmHg 18%
    11:00 +38°C° 0 mm 2 mps 680 mmHg 14%
    12:00 +39°C° 0 mm 2 mps 679 mmHg 13%
    13:00 +40°C° 0 mm 1 mps 679 mmHg 12%
    14:00 +41°C° 0 mm 1 mps 678 mmHg 10%
    15:00 +40°C° 0 mm 2 mps 678 mmHg 11%
    16:00 +40°C° 0 mm 3 mps 677 mmHg 11%
    17:00 +39°C° 0 mm 3 mps 677 mmHg 11%
    18:00 +38°C° 0 mm 4 mps 677 mmHg 14%
    19:00 +36°C° 0 mm 5 mps 677 mmHg 16%
    20:00 +35°C° 0 mm 5 mps 678 mmHg 18%
    21:00 +34°C° 0 mm 4 mps 678 mmHg 19%
    22:00 +33°C° 0 mm 3 mps 678 mmHg 20%
    23:00 +31°C° 0 mm 2 mps 678 mmHg 22%
    Show more